DAL88 KBNA-KJAN

Flight info

Callsign DAL88
Flight time N/A
Altitude 30000
Route DRURY4 JALAR CLOUT DESKE V74 WOSBU
Aircraft B739/M-SDE2E3FGHIRWXY/LB1

Departure

Time 2026-05-05 01:08
Airport Nashville International Airport (KBNA)

Arrival

Time N/A
Airport Jackson-Medgar Wiley Evers International Airport (KJAN)
Time Latitude Longitude Altitude Speed Heading
2026-05-05 00:08 36.13316 -86.67162 569 ft 0 kts 192°
2026-05-05 00:47 36.13325 -86.67160 575 ft 3 kts 190°
2026-05-05 00:47 36.13348 -86.67155 575 ft 3 kts 191°
2026-05-05 00:48 36.13369 -86.67147 570 ft 4 kts 220°
2026-05-05 00:48 36.13375 -86.67139 570 ft 2 kts 287°
2026-05-05 00:48 36.13374 -86.67134 570 ft 1 kts 287°
2026-05-05 00:53 36.13374 -86.67137 567 ft 2 kts 287°
2026-05-05 00:54 36.13380 -86.67158 571 ft 3 kts 287°
2026-05-05 00:54 36.13386 -86.67182 570 ft 3 kts 287°
2026-05-05 00:54 36.13392 -86.67209 571 ft 4 kts 286°
2026-05-05 00:54 36.13401 -86.67246 571 ft 5 kts 286°
2026-05-05 00:55 36.13407 -86.67276 571 ft 0 kts 279°
2026-05-05 00:55 36.13407 -86.67280 570 ft 0 kts 279°
2026-05-05 00:55 36.13405 -86.67289 566 ft 4 kts 255°
2026-05-05 00:55 36.13362 -86.67328 574 ft 9 kts 199°
2026-05-05 00:56 36.13301 -86.67351 573 ft 9 kts 194°
2026-05-05 00:56 36.13239 -86.67362 570 ft 9 kts 184°
2026-05-05 00:56 36.13157 -86.67373 571 ft 13 kts 185°
2026-05-05 00:56 36.13066 -86.67375 571 ft 13 kts 172°
2026-05-05 00:57 36.12985 -86.67333 573 ft 13 kts 146°
2026-05-05 00:57 36.12916 -86.67266 574 ft 12 kts 145°
2026-05-05 00:57 36.12854 -86.67264 576 ft 9 kts 212°
2026-05-05 00:57 36.12811 -86.67319 578 ft 9 kts 226°
2026-05-05 00:58 36.12768 -86.67371 579 ft 8 kts 224°
2026-05-05 00:58 36.12722 -86.67412 581 ft 8 kts 193°
2026-05-05 00:58 36.12680 -86.67381 583 ft 7 kts 134°
2026-05-05 00:58 36.12644 -86.67336 584 ft 7 kts 135°
2026-05-05 00:59 36.12610 -86.67293 585 ft 7 kts 133°
2026-05-05 00:59 36.12578 -86.67249 585 ft 7 kts 131°
2026-05-05 00:59 36.12547 -86.67205 584 ft 7 kts 132°
2026-05-05 00:59 36.12514 -86.67163 584 ft 7 kts 135°
2026-05-05 01:00 36.12481 -86.67122 585 ft 7 kts 135°
2026-05-05 01:00 36.12448 -86.67082 585 ft 7 kts 135°
2026-05-05 01:00 36.12416 -86.67043 585 ft 7 kts 134°
2026-05-05 01:00 36.12366 -86.66970 583 ft 17 kts 129°
2026-05-05 01:01 36.12286 -86.66840 584 ft 19 kts 114°
2026-05-05 01:01 36.12247 -86.66683 580 ft 17 kts 106°
2026-05-05 01:01 36.12221 -86.66534 579 ft 16 kts 62°
2026-05-05 01:01 36.12319 -86.66489 575 ft 15 kts 18°
2026-05-05 01:02 36.12417 -86.66451 571 ft 14 kts 17°
2026-05-05 01:02 36.12509 -86.66415 567 ft 14 kts 17°
2026-05-05 01:02 36.12598 -86.66380 567 ft 13 kts 18°
2026-05-05 01:02 36.12683 -86.66344 566 ft 13 kts 18°
2026-05-05 01:03 36.12777 -86.66306 569 ft 16 kts 18°
2026-05-05 01:03 36.12895 -86.66258 568 ft 20 kts 18°
2026-05-05 01:03 36.13026 -86.66210 561 ft 21 kts 16°
2026-05-05 01:03 36.13157 -86.66158 559 ft 15 kts 19°
2026-05-05 01:04 36.13256 -86.66170 558 ft 15 kts 342°
2026-05-05 01:04 36.13315 -86.66168 558 ft 0 kts 21°
2026-05-05 01:05 36.13325 -86.66163 554 ft 8 kts 21°
2026-05-05 01:05 36.13389 -86.66116 547 ft 11 kts 61°
2026-05-05 01:05 36.13379 -86.66040 551 ft 0 kts 109°
2026-05-05 01:07 36.13373 -86.66015 547 ft 10 kts 108°
2026-05-05 01:07 36.13334 -86.65944 547 ft 9 kts 159°
2026-05-05 01:07 36.13248 -86.65971 548 ft 39 kts 200°
2026-05-05 01:07 36.12705 -86.66191 567 ft 122 kts 198°
2026-05-05 01:08 36.11676 -86.66594 647 ft 181 kts 197°
2026-05-05 01:08 36.10444 -86.67050 1501 ft 187 kts 195°
2026-05-05 01:08 36.09196 -86.67563 2566 ft 187 kts 204°
2026-05-05 01:08 36.07909 -86.68214 3112 ft 209 kts 204°
2026-05-05 01:09 36.06504 -86.68932 3449 ft 231 kts 204°
2026-05-05 01:09 36.04975 -86.69701 4021 ft 241 kts 203°
2026-05-05 01:09 36.03407 -86.70476 4903 ft 244 kts 203°
2026-05-05 01:09 36.01838 -86.71243 5796 ft 247 kts 203°
2026-05-05 01:10 36.00227 -86.72022 6665 ft 250 kts 203°
2026-05-05 01:10 35.98589 -86.72811 7417 ft 257 kts 203°
2026-05-05 01:10 35.96904 -86.73622 8180 ft 263 kts 204°
2026-05-05 01:10 35.95214 -86.74522 8962 ft 266 kts 214°
2026-05-05 01:11 35.93843 -86.76055 9634 ft 269 kts 233°
2026-05-05 01:11 35.92788 -86.77959 9915 ft 269 kts 238°
2026-05-05 01:11 35.91782 -86.79925 9931 ft 272 kts 239°
2026-05-05 01:11 35.90782 -86.81898 9936 ft 272 kts 238°
2026-05-05 01:12 35.89779 -86.83865 9944 ft 270 kts 238°
2026-05-05 01:12 35.88771 -86.85827 9960 ft 273 kts 238°
2026-05-05 01:12 35.87716 -86.87868 10091 ft 293 kts 238°
2026-05-05 01:12 35.86576 -86.90065 10334 ft 315 kts 238°
2026-05-05 01:13 35.85387 -86.92348 10858 ft 324 kts 238°
2026-05-05 01:13 35.84160 -86.94700 11584 ft 327 kts 238°
2026-05-05 01:13 35.82924 -86.97065 12348 ft 330 kts 238°
2026-05-05 01:13 35.81674 -86.99454 13088 ft 333 kts 238°
2026-05-05 01:14 35.80408 -87.01869 13809 ft 337 kts 238°
2026-05-05 01:14 35.79073 -87.04264 14434 ft 343 kts 231°
2026-05-05 01:14 35.77239 -87.06191 15041 ft 351 kts 217°
2026-05-05 01:14 35.75179 -87.07848 15689 ft 356 kts 215°
2026-05-05 01:15 35.73072 -87.09485 16287 ft 360 kts 215°
2026-05-05 01:15 35.71664 -87.10580 16701 ft 363 kts 215°
2026-05-05 01:15 35.69494 -87.12284 17323 ft 367 kts 216°
2026-05-05 01:15 35.67363 -87.13978 17914 ft 372 kts 216°
2026-05-05 01:16 35.65185 -87.15719 18473 ft 376 kts 216°
2026-05-05 01:16 35.62952 -87.17503 19022 ft 379 kts 215°
2026-05-05 01:16 35.60702 -87.19133 19572 ft 383 kts 212°
2026-05-05 01:16 35.58328 -87.20675 20130 ft 387 kts 210°
2026-05-05 01:17 35.55916 -87.22182 20673 ft 390 kts 210°
2026-05-05 01:17 35.53483 -87.23694 21200 ft 394 kts 210°
2026-05-05 01:17 35.51036 -87.25225 21729 ft 397 kts 210°
2026-05-05 01:17 35.48568 -87.26782 22251 ft 400 kts 210°
2026-05-05 01:18 35.46085 -87.28358 22766 ft 403 kts 211°
2026-05-05 01:18 35.43587 -87.29950 23277 ft 407 kts 211°
2026-05-05 01:18 35.41067 -87.31559 23742 ft 410 kts 211°
2026-05-05 01:18 35.38529 -87.33180 24165 ft 413 kts 211°
2026-05-05 01:19 35.35977 -87.34810 24629 ft 415 kts 211°
2026-05-05 01:19 35.33411 -87.36447 25064 ft 417 kts 211°
2026-05-05 01:19 35.30826 -87.38096 25488 ft 420 kts 211°
2026-05-05 01:19 35.28230 -87.39750 25930 ft 422 kts 211°
2026-05-05 01:20 35.25629 -87.41405 26475 ft 420 kts 212°
2026-05-05 01:20 35.23042 -87.43049 27102 ft 417 kts 212°
2026-05-05 01:20 35.20470 -87.44682 27708 ft 416 kts 212°
2026-05-05 01:20 35.17911 -87.46307 28247 ft 415 kts 212°
2026-05-05 01:21 35.15381 -87.47914 28768 ft 415 kts 212°
2026-05-05 01:21 35.12824 -87.49536 29312 ft 413 kts 212°
2026-05-05 01:21 35.10274 -87.51153 29850 ft 413 kts 213°
2026-05-05 01:21 35.07712 -87.52779 29924 ft 417 kts 213°
2026-05-05 01:22 35.02575 -87.56028 29946 ft 413 kts 213°
2026-05-05 01:22 34.97687 -87.59625 29963 ft 409 kts 221°
2026-05-05 01:23 34.93104 -87.63728 29967 ft 409 kts 223°
2026-05-05 01:23 34.88509 -87.67865 29964 ft 412 kts 222°
2026-05-05 01:24 34.83862 -87.71959 29967 ft 413 kts 222°
2026-05-05 01:24 34.79180 -87.76030 29961 ft 414 kts 222°
2026-05-05 01:25 34.74529 -87.80054 29957 ft 414 kts 222°
2026-05-05 01:25 34.69835 -87.84108 29959 ft 413 kts 222°
2026-05-05 01:26 34.65146 -87.88154 29974 ft 413 kts 223°
2026-05-05 01:26 34.60455 -87.92196 29963 ft 413 kts 223°
2026-05-05 01:27 34.55764 -87.96233 29952 ft 413 kts 223°
2026-05-05 01:27 34.51078 -88.00260 29953 ft 413 kts 223°
2026-05-05 01:28 34.46379 -88.04293 29958 ft 413 kts 223°
2026-05-05 01:28 34.41682 -88.08318 29946 ft 414 kts 224°
2026-05-05 01:29 34.36979 -88.12343 29949 ft 414 kts 224°
2026-05-05 01:29 34.32269 -88.16368 29950 ft 414 kts 224°
2026-05-05 01:30 34.27557 -88.20389 29944 ft 415 kts 224°
2026-05-05 01:30 34.22835 -88.24413 29938 ft 415 kts 224°
2026-05-05 01:31 34.18115 -88.28428 29946 ft 415 kts 224°
2026-05-05 01:31 34.13426 -88.32413 29950 ft 415 kts 224°
2026-05-05 01:32 34.08700 -88.36423 29941 ft 415 kts 225°
2026-05-05 01:32 34.03969 -88.40432 29945 ft 415 kts 225°
2026-05-05 01:33 33.99241 -88.44433 29943 ft 415 kts 225°
2026-05-05 01:33 33.94551 -88.48397 29938 ft 414 kts 225°
2026-05-05 01:34 33.89835 -88.52376 29936 ft 413 kts 225°
2026-05-05 01:34 33.85130 -88.56341 29932 ft 412 kts 225°
2026-05-05 01:35 33.80428 -88.60298 29937 ft 412 kts 225°
2026-05-05 01:35 33.75735 -88.64242 29941 ft 411 kts 225°
2026-05-05 01:36 33.71051 -88.68174 29947 ft 411 kts 225°
2026-05-05 01:36 33.66364 -88.72104 29949 ft 411 kts 225°
2026-05-05 01:37 33.61683 -88.76023 29957 ft 410 kts 225°
2026-05-05 01:37 33.57002 -88.79937 29954 ft 410 kts 226°
2026-05-05 01:38 33.52326 -88.83841 29948 ft 409 kts 226°
2026-05-05 01:38 33.50119 -88.85930 29939 ft 397 kts 235°
2026-05-05 01:38 33.48303 -88.88351 29956 ft 386 kts 243°
2026-05-05 01:39 33.45683 -88.93762 29953 ft 371 kts 254°
2026-05-05 01:39 33.43549 -88.99345 29946 ft 371 kts 255°
2026-05-05 01:40 33.41398 -89.04970 29959 ft 372 kts 254°
2026-05-05 01:40 33.39227 -89.10594 29959 ft 373 kts 254°
2026-05-05 01:41 33.37065 -89.16143 29954 ft 357 kts 254°
2026-05-05 01:41 33.35001 -89.21420 29959 ft 347 kts 255°
2026-05-05 01:42 33.32957 -89.26681 29554 ft 347 kts 254°
2026-05-05 01:42 33.31939 -89.29290 29108 ft 344 kts 254°
2026-05-05 01:42 33.30932 -89.31864 28654 ft 340 kts 254°
2026-05-05 01:43 33.29935 -89.34407 28240 ft 336 kts 253°
2026-05-05 01:43 33.28950 -89.36924 27781 ft 333 kts 253°
2026-05-05 01:43 33.27973 -89.39416 27344 ft 330 kts 253°
2026-05-05 01:43 33.27005 -89.41888 26922 ft 327 kts 253°
2026-05-05 01:44 33.26056 -89.44307 26495 ft 325 kts 252°
2026-05-05 01:44 33.25100 -89.46744 26075 ft 322 kts 252°
2026-05-05 01:44 33.24152 -89.49158 25661 ft 320 kts 252°
2026-05-05 01:44 33.23196 -89.51593 25249 ft 319 kts 252°
2026-05-05 01:45 33.22256 -89.53984 24840 ft 317 kts 251°
2026-05-05 01:45 33.21330 -89.56335 24436 ft 316 kts 251°
2026-05-05 01:45 33.20395 -89.58713 24033 ft 316 kts 251°
2026-05-05 01:45 33.19460 -89.61086 23614 ft 316 kts 250°
2026-05-05 01:46 33.18525 -89.63456 23165 ft 315 kts 250°
2026-05-05 01:46 33.17592 -89.65817 22736 ft 314 kts 250°
2026-05-05 01:46 33.16662 -89.68171 22319 ft 312 kts 250°
2026-05-05 01:46 33.15739 -89.70504 21920 ft 310 kts 250°
2026-05-05 01:47 33.14819 -89.72827 21523 ft 308 kts 250°
2026-05-05 01:47 33.13907 -89.75130 21137 ft 306 kts 250°
2026-05-05 01:47 33.12998 -89.77424 20751 ft 305 kts 250°
2026-05-05 01:47 33.12093 -89.79707 20372 ft 304 kts 250°
2026-05-05 01:48 33.11193 -89.81978 19992 ft 303 kts 250°
2026-05-05 01:48 33.10291 -89.84250 19614 ft 302 kts 250°
2026-05-05 01:48 33.09394 -89.86509 19232 ft 302 kts 250°
2026-05-05 01:48 33.08494 -89.88774 18835 ft 302 kts 249°
2026-05-05 01:49 33.07595 -89.91035 18449 ft 302 kts 249°
2026-05-05 01:49 33.06693 -89.93301 18042 ft 302 kts 249°
2026-05-05 01:49 33.05793 -89.95561 17643 ft 302 kts 249°
2026-05-05 01:49 33.04895 -89.97813 17243 ft 300 kts 249°
2026-05-05 01:50 33.04015 -90.00020 16874 ft 299 kts 249°
2026-05-05 01:50 33.03108 -90.02292 16491 ft 298 kts 249°
2026-05-05 01:50 33.02230 -90.04490 16127 ft 297 kts 249°
2026-05-05 01:50 33.01343 -90.06709 15750 ft 296 kts 249°
2026-05-05 01:51 33.00461 -90.08916 15377 ft 295 kts 249°
2026-05-05 01:51 32.99579 -90.11120 15011 ft 294 kts 249°
2026-05-05 01:51 32.98699 -90.13320 14625 ft 294 kts 249°
2026-05-05 01:51 32.97817 -90.15521 14254 ft 294 kts 249°
2026-05-05 01:52 32.96936 -90.17721 13867 ft 295 kts 249°
2026-05-05 01:52 32.96050 -90.19932 13456 ft 295 kts 249°
2026-05-05 01:52 32.95168 -90.22127 13088 ft 293 kts 249°
2026-05-05 01:52 32.94294 -90.24304 12730 ft 291 kts 249°
2026-05-05 01:53 32.93423 -90.26471 12369 ft 289 kts 248°
2026-05-05 01:53 32.92557 -90.28626 12011 ft 288 kts 248°
2026-05-05 01:53 32.91695 -90.30770 11649 ft 287 kts 248°
2026-05-05 01:53 32.90836 -90.32906 11289 ft 286 kts 248°
2026-05-05 01:54 32.89979 -90.35032 10926 ft 285 kts 248°
2026-05-05 01:54 32.89123 -90.37154 10567 ft 284 kts 247°
2026-05-05 01:54 32.88225 -90.39241 10205 ft 285 kts 238°